This demonstration page uses our WeatherBlox Daily Observations layout. Learn more.

Left ArrowRight Arrow

34.02893, -84.19858

Hourly Observations for March 26, 2016

Temp ( °F °C ) Dew Point ( °F °C ) Humidity (%) Winds ( mph kmh ) Pressure ( in mb ) Visibility ( mi km ) Precip ( " mm )
12:53 am 00:53 Clear 52 11.1 46 7.8 80 80 Calm 29.99 1016 10 16 0.00 0.00
1:53 am 01:53 Clear 50 10 47 8.3 89 89 Calm 30.00 1016 10 16 0.00 0.00
2:53 am 02:53 Clear 50 10 46 7.8 86 86 Calm 29.99 1016 9 14 0.00 0.00
3:53 am 03:53 Clear 50 10 48 8.9 93 93 Calm 30.00 1016 9 14 0.00 0.00
4:53 am 04:53 Mostly Cloudy 50 10 48 8.9 93 93 Calm 30.01 1016 9 14 0.00 0.00
5:53 am 05:53 Cloudy 52 11.1 49 9.4 89 89 Calm 30.01 1016 10 16 0.00 0.00
6:53 am 06:53 Cloudy 54 12.2 49 9.4 83 83 Calm 30.02 1017 10 16 0.00 0.00
7:53 am 07:53 Cloudy 56 13.3 48 8.9 75 75 NNE 5 7 30.04 1017 9 14 0.00 0.00
8:53 am 08:53 Cloudy with Light Rain 56 13.3 51 10.6 84 84 Calm 30.07 1018 3 5 0.00 0.03
8:58 am 08:58 Cloudy with Mist and Fog 55 13 52 11 88 88 Calm 30.09 1019 2 3 0.00 0.00
9:03 am 09:03 Cloudy with Mist and Fog 55 13 52 11 88 88 Calm 30.09 1019 2 3 0.00 0.00
9:10 am 09:10 Cloudy with Mist and Fog 55 13 54 12 94 94 VRB 3 6 30.09 1019 3 4 0.00 0.00
9:17 am 09:17 Cloudy with Mist and Fog 56 13.3 53 11.7 90 90 Calm 30.09 1019 3 5 0.00 0.03
9:46 am 09:46 Cloudy with Mist and Fog 57 14 55 13 94 94 Calm 30.09 1019 5 8 0.00 0.00
9:53 am 09:53 Cloudy with Mist and Fog 57 13.9 55 12.8 93 93 Calm 30.08 1019 3 5 0.00 0.03
10:01 am 10:01 Cloudy with Mist and Fog 57 13.9 55 12.8 93 93 E 5 7 30.09 1019 2 3 0.00 0.00
10:29 am 10:29 Cloudy with Light Rain 57 13.9 56 13.3 96 96 VRB 5 7 30.12 1020 2 3 0.01 0.25
10:53 am 10:53 Cloudy with Light Rain 58 14.4 57 13.9 97 97 Calm 30.12 1020 2 3 0.02 0.51
11:53 am 11:53 Cloudy with Mist and Fog 58 14.4 58 14.4 100 100 VRB 5 7 30.13 1020 1 2 0.00 0.03
12:42 pm 12:42 Cloudy with Mist and Fog 59 15 59 15 100 100 VRB 3 6 30.15 1021 2 2 0.00 0.00
12:53 pm 12:53 Cloudy with Mist and Fog 59 15 59 15 100 100 E 5 7 30.13 1020 2 2 0.00 0.03
1:53 pm 13:53 Cloudy with Mist and Fog 59 15 59 15 100 100 Calm 30.12 1020 2 3 0.00 0.00
2:07 pm 14:07 Cloudy with Light Rain 60 15.6 59 15 96 96 ENE 6 9 30.12 1020 2 2 0.01 0.25
2:16 pm 14:16 Cloudy with Light Rain 59 15 59 15 100 100 ENE 7 11 30.12 1020 3 5 0.00 0.00
2:28 pm 14:28 Cloudy with Mist and Fog 61 16 61 16 100 100 ENE 6 9 30.12 1020 3 4 0.00 0.00
2:48 pm 14:48 Cloudy with Mist and Fog 61 16 61 16 100 100 VRB 5 7 30.12 1020 4 6 0.00 0.00
2:53 pm 14:53 Cloudy with Mist and Fog 60 15.6 60 15.6 100 100 ENE 5 7 30.12 1020 5 8 0.01 0.25
3:01 pm 15:01 Cloudy with Mist and Fog 60 15.6 60 15.6 100 100 E 5 7 30.12 1020 5 8 0.00 0.00
3:28 pm 15:28 Cloudy with Mist and Fog 61 16 61 16 100 100 E 5 7 30.12 1020 5 8 0.00 0.00
3:53 pm 15:53 Cloudy with Mist and Fog 61 16.1 60 15.6 97 97 Calm 30.11 1020 4 6 0.00 0.00
4:35 pm 16:35 Cloudy with Mist and Fog 62 16.7 61 16.1 96 96 NE 7 11 30.12 1020 5 8 0.00 0.00
4:53 pm 16:53 Cloudy with Mist and Fog 62 16.7 60 15.6 93 93 Calm 30.12 1020 5 8 0.00 0.00
5:53 pm 17:53 Cloudy with Mist and Fog 63 17.2 61 16.1 93 93 Calm 30.11 1020 6 10 0.00 0.00
6:53 pm 18:53 Cloudy with Mist and Fog 62 16.7 61 16.1 96 96 VRB 3 6 30.11 1020 6 10 0.00 0.00
7:53 pm 19:53 Cloudy with Mist and Fog 61 16.1 60 15.6 97 97 VRB 7 11 30.11 1020 4 6 0.00 0.00
8:53 pm 20:53 Cloudy with Mist and Fog 60 15.6 59 15 96 96 VRB 3 6 30.14 1021 6 10 0.00 0.00
9:53 pm 21:53 Cloudy with Mist and Fog 60 15.6 59 15 96 96 Calm 30.15 1021 6 10 0.00 0.00
10:53 pm 22:53 Cloudy with Mist and Fog 59 15 59 15 100 100 ENE 6 9 30.15 1021 5 8 0.00 0.00
11:32 pm 23:32 Cloudy with Mist and Fog 59 15 59 15 100 100 E 6 9 30.18 1022 4 6 0.00 0.00
11:53 pm 23:53 Cloudy with Mist and Fog 59 15 59 15 100 100 VRB 5 7 30.15 1021 3 5 0.00 0.00

Powered by AerisWeather